Location: Santiago
(33.4378°S, 70.6505°W)
Time: 20:06:06
(UTC+00:00)

ISS - Pass Details

Date: 12 May 2026
Orbit: 414 x 424 km, 51.6° (Epoch: 10 May)

Event Time Altitude Azimuth Distance (km) Brightness Sun altitude
Rises 10:15:53 0° 345° (NNW) 2,367 0.0 -14.6°
Reaches altitude 10° 10:18:18 10° 1° (N) 1,512 -0.8 -14.1°
Maximum altitude 10:20:55 21° 52° (NE) 1,031 -0.9 -13.6°
Drops below altitude 10° 10:23:33 10° 102° (ESE) 1,529 0.2 -13.0°
Sets 10:26:01 0° 118° (ESE) 2,403 0.9 -12.5°
